Вернуться в каталог

CZ-4 DEB

АктивенPO
NORAD 26436·DEBRIS·🇨🇳 China

Запущен Oct 14, 1999 с Taiyuan Satellite Launch Center

Loading…

Ближайшие Пролёты (ближайшие 24 часа)

TLE

СвежийSource: Space-Track

Эпоха: Sep 14, 2026, 10:01 UTC

1 26436U 99057KH  26257.41796480 -.00000012  00000-0  23924-4 0  9990
2 26436  99.5117 320.2106 0704293  33.3954 330.9592 12.98273934614427

Отслеживайте CZ-4 DEB в реальном времени с AllMySat

Download on the App Store